星链-5231 (STARLINK-5231 )

导读

STARLINK-5231是美国SpaceX公司星链星座的一员,于2022年10月28日发射入轨。作为低地球轨道卫星,它为全球偏远地区提供高速宽带互联网服务,助力消除数字鸿沟。该卫星属于星链快速扩张阶段部署,具备星间链路能力,提升了数据传输效率,但也引发太空轨道拥堵和天文观测干扰等争议,是全球低轨卫星互联网建设的典型缩影。

基本信息
目录编号:
54182
目录名称:
STARLINK-5231
国际标识:
2022-141AB
轨道中心:
EARTH
卫星名称:
星链-5231
卫星全名:
星链-5231 (STARLINK-5231 )
卫星状态:
在轨 (已飞行1326 天)
发射日期:
2022-10-28 UTC
国别 :
美国 (US)
星等 :
--
轨道信息
数据来源 国际轨道数据 AOE轨道数据
星历时间 2026-06-14T20:41:15+0800
17小时前
查看轨道信息
2026-06-13T07:00:00+0800
2天前
查看轨道信息
半长轴 6917.901km 6917.901km
偏心率 0.0001175 0.0001121
轨道倾角 53.160° 53.158°
近地点辐角 86.857° 76.400°
升交点赤经 258.948° 266.007°
平近点角 273.255° 29.408°
近地点 538.951km 538.988km
远地点 540.577km 540.54km
周期 95.438分钟 95.438分钟
每日圈数 15.088335 15.088334
详细信息
固有亮度:
5
最大亮度:
2.5
卫星平台:
Starlink v1.5
覆盖范围:
全球
运营商:
太空探索技术公司
运营商所在国:
美国
制造商(研发单位):
太空探索技术公司
制造商所在国:
美国
使用方式:
暂无
卫星简介
星链(Starlink)计划是由太空探索技术公司(SpaceX)提出的一个巨型低轨卫星互联网星座项目,计划在2019年至2024年间在太空搭建由约1.2万颗卫星组成的“星链”网络,其中1584颗将部署在地球上空550千米处的近地轨道,并从2020年开始工作。该卫星仍在工作。
2D轨道图
3D轨道图
轨道高度分析图
轨道倾角分析图
轨道综合分析图
查看轨道综合分析图